This is the latest recevied weather packets stored in our database for station/object WP4NYS-13. If no packets are shown the sender has not sent any weather packets the latest 1 day(s).
| Time | Temp. | Humidity | Pressure | Rain* | Wind** | Luminosity | Snow |
|---|---|---|---|---|---|---|---|
| 1778034975 | 22.78° C | 57% | 1017 hPa | 0 mm | - | - | - |
| 1778034672 | 23.33° C | 56% | 1016.7 hPa | 0 mm | - | - | - |
| 1778034370 | 23.33° C | 57% | 1016.9 hPa | 0 mm | - | - | - |
| 1778034067 | 23.33° C | 57% | 1016.9 hPa | 0 mm | - | - | - |
| 1778033765 | 23.33° C | 57% | 1017.2 hPa | 0 mm | - | - | - |
| 1778033461 | 23.33° C | 57% | 1016.9 hPa | 0 mm | - | - | - |
| 1778033159 | 23.89° C | 57% | 1016.7 hPa | 0 mm | - | - | - |
| 1778032554 | 23.89° C | 56% | 1016.3 hPa | 0 mm | - | - | - |
| 1778032250 | 23.89° C | 56% | 1016.3 hPa | 0 mm | - | - | - |
| 1778031949 | 24.44° C | 56% | 1016.5 hPa | 0 mm | - | - | - |
| 1778031649 | 24.44° C | 56% | 1016.7 hPa | 0 mm | - | - | - |
| 1778031348 | 24.44° C | 55% | 1016.4 hPa | 0 mm | - | - | - |
| 1778031044 | 24.44° C | 55% | 1016.4 hPa | 0 mm | - | - | - |
| 1778030740 | 25° C | 54% | 1016.3 hPa | 0 mm | - | - | - |
| 1778030135 | 25° C | 54% | 1016.2 hPa | 0 mm | - | - | - |
| 1778029831 | 25° C | 54% | 1016.5 hPa | 0 mm | - | - | - |
| 1778029531 | 25.56° C | 53% | 1016.3 hPa | 0 mm | - | - | - |
| 1778028924 | 25.56° C | 53% | 1016.1 hPa | 0 mm | - | - | - |
| 1778028014 | 26.11° C | 52% | 1016.1 hPa | 0 mm | - | - | - |
| 1778026798 | 27.22° C | 52% | 1015.9 hPa | 0 mm | - | - | - |
| 1778024375 | 28.33° C | 44% | 1015.2 hPa | 0 mm | - | - | - |
| 1778024073 | 28.89° C | 44% | 1014.8 hPa | 0 mm | - | - | - |
| 1778021954 | 29.44° C | 40% | 1014.8 hPa | 0 mm | - | - | - |
| 1778021044 | 29.44° C | 40% | 1014.8 hPa | 0 mm | - | - | - |
| 1778019830 | 29.44° C | 41% | 1014.7 hPa | 0 mm | - | - | - |
* Rain latest hour (hover to see other rain measurements)
** Current wind speed in m/s (hover to see current wind gust speed)